Showing default

SERVIS 2, 36588

Orbit data source: Space-Track

SERVIS 2, 36588 is a payload satellite owned by USEF (JP) in SSO that was launched on Wed, 02 Jun 2010 UTC via an ROKOT launch vehicle from the Plesetsk Missile And Space Complex (PKMTR). Payload-class satellites include a variety of spacecraft equipped with specific instruments for various scientific and technological missions. These include communications satellites like Starlink; space stations such as the ISS; scientific satellites like the Hubble; Earth observation satellites from companies like Planet Labs, Umbra, and HawkEye 360; GPS; miniature CubeSats for education and research; and military/defense satellites.

Loading next visibility...
Identifier
36588, 2010-023A
Orbit
SSO
Country
Flag of JPJP / JPN
Related business
Manufacturer
MELCO
Mission
Commercial Technology
Bus & Motor
SERVIS, Unknown motor
Mass
740 kg wet, ~700 kg dry
Launch date (UTC)
2010-06-02 (15 years ago)
Launch vehicle
ROKOT
Launch site
Plesetsk Missile And Space Complex (PKMTR)
Object type
Payload
Rocket body
Debris
Shape & HBR
Box + 2 Pan, 5.1 m
Radar Cross Section
8.092 m², Large (>1 m²)

Expand to show TLE details & history
Last TLE update: 17 hours ago

TLE from 17 hours ago
0 SERVIS 2
1 36588U 10023A   25257.48300638  .00000001  00000-0  12105-3 0  9992
2 36588 100.4295  84.1906 0017236 181.2796 233.4215 13.16032229734502
Epoch: 2025-09-14T11:35Z
TLE epoch observation values (Epoch: 2025-09-14T11:35:31.751Z)
Latitude
53.33107°
Longitude
-97.63253°
Altitude
1,216.301 km
Speed
7.247 km/s
True Right ascension
04h 39m 48s
True Declination
53° 10' 34"
Sunlit
Object was in daylight at epoch
Visualization orbit readout
Latitude
Unknown
Longitude
Unknown
Altitude
Unknown
Speed
Unknown
Apparent Right ascension
Unknown
Apparent Declination
Unknown
Sunlit
N/A
Visualization observer readout
Local Sidereal Time
21:18:51
Azimuth
Unknown
Elevation
Unknown
Doppler factor
Unknown
Orbital elements
Apogee altitude
1,210.356 km
Perigee altitude
1,184.242 km
Semi-major axis
7,575.436 km
Eccentricity
0.00172
Inclination
100.4295°
RAAN
84.1906°
Arg. of periapsis
181.2796°
True anomaly
233.26309°
Mean anomaly
233.4215°
Eccentric anomaly
233.34228°
Mean motion
3.29179 °/min
Orbital period
109.36 mins
BSTAR
0.00012105
Loading maneuver chart data...
Computing Atmospheric mass density...
Loading historical data...
Loading historical data...
Loading historical data...
Loading historical data...
Loading historical data...
Loading historical data...
Loading historical data...
Other satellites on launch #23 in the year 2010 (2010-06-02 UTC)

Documentation

Showing up to 5 results
|